Location: Franzen
(48.6167°N, 15.3833°E)
Time: 13:17:04
(UTC+00:00)

Cosmos 1190 Rocket - Pass Details

Date: 22 April 2021
Orbit: 757 x 779 km, 74.1° (Epoch: 16 May)

Event Time Altitude Azimuth Distance (km) Brightness Sun altitude
Rises 19:16:15 0° 186° (S) 3,223 6.9 -11.9°
Reaches altitude 10° 19:18:40 10° 182° (S) 2,297 6.1 -12.3°
Maximum altitude 19:23:42 52° 106° (ESE) 941 4.1 -12.9°
Drops below altitude 10° 19:28:46 10° 31° (NNE) 2,302 6.6 -13.6°
Sets 19:31:11 0° 27° (NNE) 3,230 7.4 -13.9°
